カタログに戻る

SCOUT A DEB

運用中PO
NORAD 2994·DEBRIS·🇺🇸 United States

打ち上げ Sep 25, 1967 から Vandenberg Space Force Base

Loading…

次のパス (今後24時間)

TLE

最新Source: Space-Track

元期: Sep 12, 2026, 16:58 UTC

1 02994U 67092C   26255.70697358  .00000315  00000-0  20944-3 0  9994
2 02994  89.4405 339.8239 0086395 293.5361  65.6757 13.97506169987000

AllMySatでSCOUT A DEBをリアルタイム追跡

Download on the App Store